Regional Weather Roundup
Issued by NWS

Home | Current Version | Previous Version | Graphics & Text | Print | Product List | Glossary On
Versions: 1 2 3 4 5 6 7 8 9 10 11 12 13 14 15 16 17 18 19 20 21 22 23 24 25 26 27 28 29 30 31 32 33 34 35 36 37 38 39 40 41 42 43 44 45 46 47 48 49 50
910
ASUS43 KBIS 131802
RWRND

NORTH DAKOTA REGIONAL WEATHER ROUNDUP
NATIONAL WEATHER SERVICE BISMARCK ND
1200 PM CST SAT FEB 13 2016

NOTE: "FAIR" INDICATES FEW OR NO CLOUDS BELOW 12,000 FEET WITH NO
SIGNIFICANT WEATHER AND/OR OBSTRUCTIONS TO VISIBILITY.


NDZ001>003-009>011-017-131900-
NORTHWEST NORTH DAKOTA

CITY           SKY/WX    TMP DP  RH WIND       PRES   REMARKS
WILLISTON      CLOUDY    20  12  71 SE15G21   29.91F WCI   6
6HR MIN TEMP:  14; 6HR MAX TEMP:  20;

MINOT          CLOUDY    16   3  56 SE16      30.07F WCI   1
MINOT AFB      CLOUDY    15   5  65 SE20      30.06F WCI  -2
$$

NDZ018>021-031>035-040>046-131900-
SOUTHWEST NORTH DAKOTA

CITY           SKY/WX    TMP DP  RH WIND       PRES   REMARKS
BISMARCK       CLOUDY    14   4  64 S21       30.15F WCI  -4
6HR MIN TEMP:   9; 6HR MAX TEMP:  14;

DICKINSON      LGT SNOW  14  11  87 S21G29    29.89F VSB 1   WCI  -4
GARRISON         N/A     11   7  84 S20G28    30.06F WCI  -7
6HR MIN TEMP:   7; 6HR MAX TEMP:  11;

HETTINGER ARPT CLOUDY    18  15  88 SE16      29.96F FOG     WCI   3
$$

NDZ004>008-012>016-024-026-027-054-131900-
NORTHEAST NORTH DAKOTA

CITY           SKY/WX    TMP DP  RH WIND       PRES   REMARKS
GRAND FORKS    CLOUDY     2  -7  66 S15       30.44F WCI -17
GRND FRKS AFB  CLOUDY     3  -7  64 S17       30.40F WCI -17
DEVILS LAKE    CLOUDY     3  -6  66 SE20      30.27F WCI -18
$$

NDZ022-023-025-028>030-036>039-047>053-131900-
SOUTHEAST NORTH DAKOTA

CITY           SKY/WX    TMP DP  RH WIND       PRES   REMARKS
FARGO          SUNNY      6  -5  60 SE16      30.45F WCI -12
6HR MIN TEMP:  -6; 6HR MAX TEMP:   6;

JAMESTOWN      CLOUDY     6  -4  63 SE18      30.27F WCI -13
$$





USA.gov is the U.S. government's official web portal to all federal, state and local government web resources and services.